Location: The Saddle
(36.8333°N, 80.3417°W)
Time: 07:44:34
(UTC-04:00)

A-11 Canister half - Pass Details

Date: 28 May 2024
Orbit: 1515 x 1685 km, 47.2° (Epoch: 17 June)

Event Time Altitude Azimuth Distance (km) Brightness Sun altitude
Exits shadow 00:51:47 57° 133° (SE) 1,815 9.0 -31.3°
Drops below altitude 10° 01:00:46 10° 62° (ENE) 3,732 11.2 -31.5°
Sets 01:03:50 0° 59° (ENE) 4,700 11.9 -31.5°
